Home > Weather > Grand Rapids > Past weeks

Flag for USA Weather for the Past 2 Weeks in Grand Rapids, Michigan, USA

Now
43 °F

Light rain. Fog.


Feels Like: 35 °F
Forecast: 46 / 51 °F
Wind: 18 mph from North

Location: Kent County International Airport

Current Time: May 4, 2016 at 6:39:58 PM

Latest Report: May 4, 2016 at 5:53 PM


Visibility: 6 mi

Pressure: 29.67 "Hg

Humidity: 89%

Dew Point: 40 °F

Location of Grand RapidsLocation

Historic Weather in Grand Rapids — Graph

°F

Grand Rapids Temperature Yesterday

Maximum temperature yesterday: 66 °F (at 3:53 PM)
Minimum temperature yesterday: 38 °F (at 5:53 AM)
Average temperature yesterday: 54 °F

High & Low Weather Summary for the Past Weeks

 TemperatureHumidityPressure
High79 °F (Apr 25, 4:53 PM)97% (Apr 22, 7:53 AM)30.33 "Hg (Apr 22, 7:53 AM)
Low35 °F (Apr 27, 2:53 AM)23% (Apr 20, 7:53 PM)29.57 "Hg (May 4, 4:53 AM)
Average51 °F67%29.98 "Hg
* Reported Apr 19 1:53 PM — May 4 1:53 PM, Grand Rapids, Weather by CustomWeather, © 2016

Note: Actual official high and low records may vary slightly from our data, if they occured in-between our weather recording intervals... More about our weather records

Advertising

Grand Rapids Weather History for the Previous 24 Hours

Scroll right to see more
 ConditionsComfort  
Time TempWeatherWind HumidityBarometerVisibility
1:53 PM
Wed, May 4
45 °FRain. More clouds than sun.17 mph82%29.62 "Hg7 mi
12:53 PM46 °FRain. Fog.17 mph86%29.62 "Hg5 mi
11:53 AM46 °FLight rain. Mostly cloudy.15 mph86%29.61 "Hg7 mi
10:53 AM46 °FRain. Fog.13 mph89%29.60 "Hg4 mi
9:53 AM46 °FRain. Fog.13 mph89%29.60 "Hg3 mi
8:53 AM47 °FLight rain. Cloudy.16 mph90%29.58 "Hg7 mi
7:53 AM49 °FRain. Fog.9 mph90%29.58 "Hg5 mi
6:53 AM51 °FMostly cloudy.8 mph77%29.57 "Hg10 mi
5:53 AM53 °FMostly cloudy.10 mph69%29.57 "Hg10 mi
4:53 AM54 °FOvercast.9 mph67%29.57 "Hg10 mi
3:53 AM55 °FPassing clouds.8 mph62%29.58 "Hg10 mi
2:53 AM54 °FOvercast.10 mph64%29.60 "Hg10 mi
1:53 AM54 °FPassing clouds.8 mph59%29.64 "Hg10 mi
12:53 AM58 °FOvercast.9 mph50%29.65 "Hg10 mi
11:53 PM
Tue, May 3
58 °FOvercast.12 mph47%29.67 "Hg10 mi
10:53 PM58 °FPartly cloudy.9 mph47%29.71 "Hg10 mi
9:53 PM57 °FMostly cloudy.8 mph51%29.73 "Hg10 mi
8:53 PM60 °FPartly sunny.7 mph42%29.75 "Hg10 mi
7:53 PM62 °FBroken clouds.10 mph38%29.76 "Hg10 mi
6:53 PM64 °FBroken clouds.15 mph34%29.78 "Hg10 mi
Weather by CustomWeather, © 2016

See weather overviewHow to use our weather pages